Crane Lake, MN

3:29 AM CST on December 07, 2019 (GMT -0600)
Crane Lake

Weather History for KCDD - June, 2019

Change the Weather History Date:

Wednesday, June 5, 2019

  Actual Average Record
Temperature  
Mean Temperature 54 °F -  
Max Temperature 57 °F 66 °F 80 °F (2012)
Min Temperature 48 °F 44 °F 32 °F (2018)
Degree Days  
Heating Degree Days 11    
Growing Degree Days 4 (Base 50)    
Moisture  
Dew Point 53 °F    
Average Humidity 97    
Maximum Humidity 100    
Minimum Humidity 88    
Precipitation  
Precipitation 0.01 in - - ()
Sea Level Pressure  
Sea Level Pressure 29.86 in    
Wind  
Wind Speed 0 mph (South)    
Max Wind Speed 4 mph    
Max Gust Speed -    
Visibility 6 miles    
Events      
Averages and records for this station are not official NWS values.
T = Trace of Precipitation, MM = Missing Value Source: NWS Daily Summary

Daily Weather History Graph

Daily Weather History Graph

Search for Another Location

Airport or City:

Astronomy

Jun. 05, 2019 Rise Set
Actual Time 5:11 AM CDT 9:05 PM CDT
Civil Twilight 4:30 AM CDT 9:46 PM CDT
Nautical Twilight 3:34 AM CDT 10:43 PM CDT
Astronomical Twilight 2:07 AM CDT 12:12 AM CDT
Moon 7:17 AM CDT (6/5) 11:31 PM CDT (6/5)
Length of Visible Light 17h 16m
Length of Day
15h 54m
Waxing Crescent, 7% of the Moon is Illuminated
Jun 5
Waxing Crescent
Jun 10
First Quarter
Jun 17
Full
Jun 25
Last Quarter
Jul 2
New

Hourly Weather History & Observations

Time (CDT) Temp. Dew Point Humidity Pressure Visibility Wind Dir Wind Speed Gust Speed Precip Events Conditions
12:48 AM 53.6 °F 53.6 °F 100% 29.76 in 1.2 mi Calm Calm - N/A   Overcast
12:55 AM 53.6 °F 53.6 °F 100% 29.75 in 1.2 mi Calm Calm - N/A   Overcast
1:28 AM 53.6 °F 53.6 °F 100% 29.75 in 0.8 mi Calm Calm - N/A   Overcast
1:55 AM 53.6 °F 53.6 °F 100% 29.75 in 1.2 mi Calm Calm - N/A   Overcast
2:55 AM 51.8 °F 51.8 °F 100% 29.77 in 1.2 mi Calm Calm - N/A   Overcast
3:55 AM 51.8 °F 51.8 °F 100% 29.78 in 1.0 mi Calm Calm - N/A   Overcast
4:08 AM 51.8 °F 51.8 °F 100% 29.79 in 1.2 mi Calm Calm - N/A   Overcast
4:55 AM 51.8 °F 51.8 °F 100% 29.79 in 2.5 mi Calm Calm - N/A   Overcast
5:08 AM 51.8 °F 51.8 °F 100% 29.80 in 3.0 mi Calm Calm - N/A   Overcast
5:55 AM 51.8 °F 51.8 °F 100% 29.82 in 5.0 mi Calm Calm - N/A   Overcast
6:27 AM 51.8 °F 51.8 °F 100% 29.82 in 2.5 mi Calm Calm - N/A   Overcast
6:55 AM 51.8 °F 51.8 °F 100% 29.83 in 7.0 mi Calm Calm - N/A   Overcast
7:07 AM 51.8 °F 51.8 °F 100% 29.83 in 7.0 mi Calm Calm - N/A   Overcast
7:28 AM 51.8 °F 51.8 °F 100% 29.83 in 7.0 mi Calm Calm - N/A   Overcast
7:55 AM 51.8 °F 51.8 °F 100% 29.84 in 5.0 mi Calm Calm - N/A   Overcast
8:28 AM 51.8 °F 51.8 °F 100% 29.84 in 3.0 mi Calm Calm - N/A   Overcast
8:55 AM 51.8 °F 51.8 °F 100% 29.85 in 2.0 mi North 3.5 mph - N/A   Overcast
9:55 AM 51.8 °F 51.8 °F 100% 29.86 in 2.0 mi Calm Calm - N/A   Overcast
10:47 AM 51.8 °F 51.8 °F 100% 29.89 in 3.0 mi Calm Calm - N/A   Overcast
10:55 AM 51.8 °F 51.8 °F 100% 29.88 in 2.5 mi Calm Calm - N/A   Overcast
11:07 AM 53.6 °F 51.8 °F 94% 29.88 in 3.0 mi Calm Calm - N/A   Overcast
11:55 AM 51.8 °F 51.8 °F 100% 29.88 in 7.0 mi Calm Calm - 0.01 in   Overcast
12:27 PM 53.6 °F 51.8 °F 94% 29.90 in 10.0 mi Calm Calm - N/A   Overcast
12:55 PM 53.6 °F 51.8 °F 94% 29.91 in 10.0 mi Calm Calm - N/A   Overcast
1:55 PM 53.6 °F 53.6 °F 100% 29.91 in 10.0 mi Calm Calm - N/A   Overcast
2:55 PM 55.4 °F 53.6 °F 94% 29.92 in 10.0 mi North 3.5 mph - N/A   Overcast
3:55 PM 55.4 °F 53.6 °F 94% 29.91 in 10.0 mi Calm Calm - N/A   Overcast
4:55 PM 57.2 °F 53.6 °F 88% 29.91 in 10.0 mi Calm Calm - N/A   Overcast
5:27 PM 57.2 °F 53.6 °F 88% 29.91 in 10.0 mi Calm Calm - N/A   Overcast
5:55 PM 57.2 °F 53.6 °F 88% 29.91 in 10.0 mi North 3.5 mph - N/A   Overcast
6:55 PM 57.2 °F 53.6 °F 88% 29.90 in 10.0 mi Calm Calm - N/A   Overcast
7:48 PM 57.2 °F 53.6 °F 88% 29.90 in 10.0 mi Calm Calm - N/A   Overcast
7:55 PM 57.2 °F 55.4 °F 94% 29.90 in 10.0 mi Calm Calm - N/A   Overcast
8:08 PM 57.2 °F 55.4 °F 94% 29.90 in 10.0 mi Calm Calm - N/A   Overcast
8:48 PM 55.4 °F 55.4 °F 100% 29.91 in 10.0 mi Calm Calm - N/A   Overcast
8:55 PM 55.4 °F 53.6 °F 94% 29.91 in 10.0 mi Calm Calm - N/A   Overcast
9:55 PM 53.6 °F 53.6 °F 100% 29.92 in 10.0 mi Calm Calm - N/A   Mostly Cloudy
10:55 PM 48.2 °F 48.2 °F 100% 29.91 in 10.0 mi Calm Calm - N/A   Clear